Location: Canet
(43.3261°N, 5.3723°E)
Time: 18:51:00
(UTC+00:00)

Cosmos 1937 Rocket - Pass Details

Date: 24 January 2021
Orbit: 746 x 780 km, 74.0° (Epoch: 02 March)

Event Time Altitude Azimuth Distance (km) Brightness Sun altitude
Rises 17:59:01 0° 184° (S) 3,238 7.0 -14.4°
Reaches altitude 10° 18:01:26 10° 179° (S) 2,319 6.1 -14.8°
Maximum altitude 18:06:32 51° 104° (ESE) 975 3.7 -15.7°
Enters shadow 18:10:45 15° 33° (NNE) 2,006 5.3 -16.5°
